Tracking 18840 objects as of 18-November-2017
HD Live streaming from Space Station
objects crossing your sky now

FENGYUN 1C DEB

Track FENGYUN 1C DEB now!
10-day predictions


NORAD ID: 30233
Int'l Code: 1999-025WS
Perigee: 701.4 km
Apogee: 783.4 km
Inclination: 99.0 °
Period: 99.5 minutes
Semi major axis: 7113 km
RCS: 0.044 m2 (small)
Launch date: May 10, 1999
Source: People's Republic of China (PRC)
Launch site: Taiyaun Space Center, China (TSC)

Note: This is SATELLITE DEBRIS
aabbcc
Your satellite tracking list
Your tracking list is empty




NASA's NSSDC Master Catalog

Two Line Element Set (TLE):
1 30233U 99025WS  17321.88785670 +.00002425 +00000-0 +66610-3 0  9994
2 30233 099.0461 182.3231 0057622 348.4837 011.5032 14.47070189566742
Source of the keplerian elements: AFSPC